STARLINK-1943 (46795 NORAD) Tracking and Keplerian Element Data

This shows tracking and keplerian element data for the satellite.

Feedback or suggestion? Click here.




ElementValue
Catalog46795
NameSTARLINK-1943
Epoch Orbit181
Epoch Day17.91667824
Epoch Year2021
RAAN102.8156
Inclination53.0537
Eccentricity0.0002607
Argument of Perigee15.4613
Mean Anonmoly121.7961
Mean Motion15.627612
Decay Rate-0.00026561
L11 46795U 20074BJ 21017.91667824 -.00026561 00000-0 -28504-3 0 9992
L22 46795 53.0537 102.8156 0002607 15.4613 121.7961 15.62761200 1811

Live tracking and technical data element details for STARLINK-1943 (NORAD 46795). STARLINK-1943 can be tracked NOW for your location showing map with azimuth and elevation plus other details from your city location.

Track the satellite on the map from your city or location and see movement details for azimuth, elevation, latitude, longitude, range, height, and movement on the map or in text.







IsCatalogInMostPopularTable: catalog: 46795, numindb: 27
Update: records affected: 1



GetName: 46795 STARLINK-1943

Hit Count: updated at: Mon, 18 Jan 2021 17:06:34 GMT